Location: Cambroso
(45.2833°N, 12.0850°E)
Time: 15:23:21
(UTC+00:00)

Cosmos 2026 Rocket - Pass Details

Date: 21 January 2021
Orbit: 940 x 1000 km, 82.9° (Epoch: 26 February)

Event Time Altitude Azimuth Distance (km) Brightness Sun altitude
Rises 18:09:48 0° 181° (S) 3,598 7.1 -22.0°
Reaches altitude 10° 18:12:15 10° 180° (S) 2,663 6.3 -22.4°
Maximum altitude 18:18:20 77° 96° (E) 987 3.8 -23.4°
Drops below altitude 10° 18:24:32 10° 11° (N) 2,719 6.2 -24.5°
Sets 18:27:04 0° 10° (N) 3,679 6.9 -25.0°
